Location: *
(51.8167°N, 12.5000°E)
Time: 13:19:33
(UTC+00:00)

Cosmos 1758 Rocket - Pass Details

Date: 16 September 2019
Orbit: 602 x 636 km, 82.5° (Epoch: 17 October)

Event Time Altitude Azimuth Distance (km) Brightness Sun altitude
Rises 20:11:13 0° 353° (N) 2,869 7.7 -24.5°
Reaches altitude 10° 20:13:30 10° 359° (N) 1,961 6.6 -24.7°
Enters shadow 20:16:36 38° 31° (NNE) 923 4.4 -25.1°
